[Date Prev][Date Next][Thread Prev][Thread Next] - [Date Index][Thread Index][Author Index]
2 Line ISS Keps 3-25
- Subject: [sarex] 2 Line ISS Keps 3-25
- From: "Dave Larsen PhD" <doc@xxxxxxxxxxx>
- Date: Fri, 24 Mar 2006 19:10:23 -0800
ISS
1 25544U 98067A 06084.00569602 .00012554 00000-0 88072-4 0 5965
2 25544 051.6429 260.6743 0008887 042.4733 047.4141 15.74599001419894
----
Via the sarex mailing list at AMSAT.ORG courtesy of AMSAT-NA.
To unsubscribe, send "unsubscribe sarex" to Majordomo@amsat.org
AMSAT Home